Regional Weather Roundup
Issued by NWS

Home | Current Version | Previous Version | Text Only | Print | Product List | Glossary Off
Versions: 1 2 3 4 5 6 7 8 9 10 11 12 13 14 15 16 17 18 19 20 21 22 23 24 25 26 27

000
ASUS45 KSLC 181910
RWRUT

UTAH REGIONAL WEATHER ROUNDUP
NATIONAL WEATHER SERVICE SALT LAKE CITY UT
1200 PM MST WED JAN 18 2017

UTZ001>011-023>025-182000-

NORTHERN UTAH

CITY           SKY/WX    TMP DP  RH WIND       PRES   REMARKS
BRIGHAM CITY     N/A     20  14  76 N3        30.15F
DUGWAY         CLOUDY    23  22  97 S1        30.12F FOG
HILL AFB       MOSUNNY   24  12  61 E8        30.09F WCI  15
LOGAN          SUNNY      7   4  87 CALM      30.13F FOG
OGDEN          MOSUNNY   25  15  66 NW6       30.10F WCI  18
SALT LAKE CITY MOSUNNY   28  21  75 NW5       30.11F WCI  23
TOOELE VALLEY  PTSUNNY   27  23  86 CALM      30.12F FOG
WENDOVER       CLOUDY    23  16  74 CALM      30.13F
HEBER CITY     SUNNY     16   9  73 CALM      30.08F
WEST JORDAN    SUNNY     30  25  80 CALM      30.09F

$$

UTZ011>015-024>027-182000-

CENTRAL/NORTHEAST UTAH

CITY           SKY/WX    TMP DP  RH WIND       PRES   REMARKS
PROVO AIRPORT  SUNNY     32  21  64 SW3       30.12F
MOAB/CANYONLAN SUNNY     36  24  62 CALM      30.11F
DELTA          SUNNY     32  25  74 CALM      30.09F
PRICE          SUNNY     24  10  55 CALM      30.09F
ROOSEVELT      LGT SNOW  21  10  63 CALM      30.23F
VERNAL         CLOUDY    16  10  77 E5        30.19F HAZE    WCI   9

$$

UTZ013>016-019>022-027-182000-

SOUTHERN UTAH

CITY           SKY/WX    TMP DP  RH WIND       PRES   REMARKS
BRYCE CANYON   SUNNY     27  17  66 S6        30.08F WCI  20
CEDAR CITY     SUNNY     43  25  49 SW14      30.06F
MILFORD        SUNNY     39  26  59 S16       30.06F WCI  30
ST GEORGE      CLEAR     43  28  56 CALM      30.17F
HANKSVILLE     SUNNY     34  23  64 MISG      30.16F
BLANDING       SUNNY     39  29  68 CALM      30.18F

$$

REGIONAL REPORTS     COLORADO/ARIZONA

CITY           SKY/WX    TMP DP  RH WIND       PRES   REMARKS
CRAIG, CO      FOG       11   8  88 CALM      30.12F VSB 1/4
GRAND JUNCTION CLOUDY    37  28  70 NW6       30.12F WCI  32
RIFLE, CO      CLOUDY    37  23  56 W3        30.10F
MONTROSE, CO   SUNNY     39  25  57 SE3       30.11F
CORTEZ, CO     CLOUDY    37  29  72 NW12      30.11F WCI  29
COLORADO CITY    N/A     46  32  57 E3        30.15F
PAGE, AZ       SUNNY     41  26  55 N6        30.12F
GRAND CANYON   SUNNY     41  30  65 SW10      30.14F
KINGMAN, AZ    SUNNY     54  24  31 SW6       30.13F
FLAGSTAFF, AZ  MOSUNNY   42  25  50 W10G16    30.13F

$$

REGIONAL REPORTS    NEVADA/IDAHO/WYOMING

CITY           SKY/WX    TMP DP  RH WIND       PRES   REMARKS
LAS VEGAS, NV  MOSUNNY   51  20  29 NE5       30.13F
ELY, NY        CLOUDY    31  14  49 SE8       30.03F WCI  23
ELKO, NV       CLOUDY    19   9  65 NE8       30.02F WCI   9
POCATELLO, ID  CLOUDY    17   9  70 NE7       30.06F WCI   8
BURLEY, ID     PTSUNNY   31  16  54 N5        30.00F WCI  26
FORT BRIDGER,    N/A     22  12  66 CALM      30.04F
EVANSTON, WY   CLOUDY    22   9  57 S3        30.02F
ROCK SPRINGS,  CLOUDY     5  -3  69 CALM      30.02F
KEMMERER, WY     N/A     27   9  46 CALM      30.02F

$$




USA.gov is the U.S. government's official web portal to all federal, state and local government web resources and services.